AAL2031 KLIT-KFLL

Flight info

Callsign AAL2031
Flight time 1h 56m
Altitude 35000
Route MICKE HEVVN PIE FORTL9
Aircraft B738/M-SDE2E3FGHIRWXY/LB1

Departure

Time 2026-05-08 10:04
Airport Bill & Hillary Clinton National Airport/Adams Field (KLIT)

Arrival

Time 2026-05-08 12:00
Airport Fort Lauderdale Hollywood International Airport (KFLL)
Time Latitude Longitude Altitude Speed Heading
2026-05-08 09:22 34.73043 -92.21911 266 ft 0 kts 307°
2026-05-08 09:52 34.73035 -92.21899 266 ft 4 kts 311°
2026-05-08 09:53 34.73016 -92.21876 266 ft 4 kts 327°
2026-05-08 09:53 34.72992 -92.21864 266 ft 4 kts 359°
2026-05-08 09:53 34.72974 -92.21868 266 ft 0 kts 36°
2026-05-08 09:57 34.72991 -92.21854 266 ft 8 kts 36°
2026-05-08 09:57 34.73043 -92.21807 266 ft 10 kts 36°
2026-05-08 09:57 34.73084 -92.21744 266 ft 10 kts 92°
2026-05-08 09:58 34.73058 -92.21659 266 ft 11 kts 115°
2026-05-08 09:58 34.73023 -92.21566 266 ft 13 kts 114°
2026-05-08 09:58 34.72984 -92.21460 266 ft 14 kts 114°
2026-05-08 09:58 34.72941 -92.21342 266 ft 16 kts 115°
2026-05-08 09:59 34.72899 -92.21234 266 ft 13 kts 113°
2026-05-08 09:59 34.72910 -92.21137 266 ft 13 kts 51°
2026-05-08 09:59 34.72976 -92.21055 266 ft 14 kts 46°
2026-05-08 09:59 34.73049 -92.20962 266 ft 16 kts 46°
2026-05-08 10:00 34.73127 -92.20862 266 ft 17 kts 46°
2026-05-08 10:00 34.73210 -92.20756 266 ft 18 kts 46°
2026-05-08 10:00 34.73299 -92.20643 266 ft 19 kts 46°
2026-05-08 10:00 34.73390 -92.20520 266 ft 20 kts 52°
2026-05-08 10:01 34.73468 -92.20397 266 ft 18 kts 52°
2026-05-08 10:01 34.73529 -92.20301 266 ft 10 kts 52°
2026-05-08 10:01 34.73553 -92.20221 266 ft 11 kts 108°
2026-05-08 10:01 34.73504 -92.20157 266 ft 7 kts 152°
2026-05-08 10:02 34.73461 -92.20180 267 ft 7 kts 226°
2026-05-08 10:02 34.73448 -92.20197 267 ft 0 kts 227°
2026-05-08 10:03 34.73431 -92.20219 267 ft 13 kts 226°
2026-05-08 10:03 34.73195 -92.20520 268 ft 85 kts 226°
2026-05-08 10:03 34.72634 -92.21236 266 ft 147 kts 226°
2026-05-08 10:04 34.71835 -92.22265 528 ft 174 kts 227°
2026-05-08 10:04 34.71181 -92.23409 1453 ft 168 kts 254°
2026-05-08 10:04 34.71346 -92.24891 1845 ft 197 kts 296°
2026-05-08 10:04 34.72211 -92.26297 2206 ft 220 kts 313°
2026-05-08 10:05 34.73618 -92.27237 2539 ft 241 kts 348°
2026-05-08 10:05 34.75321 -92.27093 2987 ft 260 kts 19°
2026-05-08 10:05 34.76812 -92.25760 3478 ft 273 kts 54°
2026-05-08 10:05 34.77503 -92.23669 4485 ft 268 kts 84°
2026-05-08 10:06 34.77574 -92.21403 5348 ft 269 kts 88°
2026-05-08 10:06 34.77737 -92.19100 6012 ft 279 kts 81°
2026-05-08 10:06 34.78051 -92.16742 6691 ft 286 kts 79°
2026-05-08 10:06 34.78246 -92.14315 7344 ft 293 kts 97°
2026-05-08 10:07 34.77598 -92.11997 8026 ft 296 kts 121°
2026-05-08 10:07 34.76507 -92.09852 8740 ft 301 kts 125°
2026-05-08 10:07 34.75338 -92.07704 9428 ft 307 kts 126°
2026-05-08 10:07 34.74139 -92.05532 10126 ft 311 kts 126°
2026-05-08 10:08 34.72899 -92.03288 10448 ft 331 kts 126°
2026-05-08 10:08 34.71577 -92.00888 10646 ft 352 kts 126°
2026-05-08 10:08 34.70186 -91.98349 11029 ft 366 kts 126°
2026-05-08 10:08 34.68772 -91.95753 11668 ft 370 kts 126°
2026-05-08 10:09 34.67351 -91.93135 12369 ft 373 kts 126°
2026-05-08 10:09 34.65919 -91.90492 13030 ft 377 kts 126°
2026-05-08 10:09 34.64464 -91.87808 13624 ft 383 kts 126°
2026-05-08 10:09 34.62991 -91.85089 14229 ft 388 kts 127°
2026-05-08 10:10 34.61501 -91.82340 14804 ft 392 kts 127°
2026-05-08 10:10 34.59997 -91.79568 15385 ft 396 kts 127°
2026-05-08 10:10 34.58473 -91.76761 15969 ft 400 kts 127°
2026-05-08 10:10 34.56932 -91.73924 16536 ft 404 kts 127°
2026-05-08 10:11 34.55396 -91.71100 17074 ft 409 kts 128°
2026-05-08 10:11 34.53823 -91.68209 17626 ft 413 kts 128°
2026-05-08 10:11 34.52230 -91.65286 18173 ft 417 kts 128°
2026-05-08 10:11 34.50619 -91.62330 18678 ft 421 kts 128°
2026-05-08 10:12 34.48998 -91.59359 19174 ft 424 kts 128°
2026-05-08 10:12 34.47363 -91.56363 19705 ft 427 kts 129°
2026-05-08 10:12 34.45714 -91.53345 20166 ft 431 kts 129°
2026-05-08 10:12 34.44051 -91.50306 20587 ft 436 kts 129°
2026-05-08 10:13 34.42373 -91.47240 21093 ft 438 kts 129°
2026-05-08 10:13 34.40683 -91.44154 21604 ft 440 kts 129°
2026-05-08 10:13 34.38985 -91.41058 22087 ft 443 kts 129°
2026-05-08 10:13 34.37276 -91.37943 22549 ft 446 kts 130°
2026-05-08 10:14 34.35553 -91.34807 22998 ft 449 kts 130°
2026-05-08 10:14 34.33819 -91.31653 23457 ft 451 kts 130°
2026-05-08 10:14 34.32071 -91.28476 23865 ft 454 kts 130°
2026-05-08 10:14 34.30335 -91.25326 24203 ft 458 kts 130°
2026-05-08 10:15 34.28563 -91.22113 24523 ft 462 kts 130°
2026-05-08 10:15 34.26772 -91.18867 24857 ft 465 kts 131°
2026-05-08 10:15 34.24970 -91.15605 25185 ft 468 kts 131°
2026-05-08 10:15 34.23151 -91.12314 25490 ft 473 kts 131°
2026-05-08 10:16 34.21317 -91.09000 25781 ft 477 kts 131°
2026-05-08 10:16 34.19465 -91.05656 26077 ft 480 kts 131°
2026-05-08 10:16 34.17604 -91.02298 26405 ft 482 kts 131°
2026-05-08 10:16 34.15731 -90.98920 26710 ft 485 kts 132°
2026-05-08 10:17 34.13845 -90.95524 27000 ft 489 kts 132°
2026-05-08 10:17 34.11944 -90.92105 27294 ft 492 kts 132°
2026-05-08 10:17 34.10030 -90.88664 27585 ft 495 kts 132°
2026-05-08 10:17 34.08107 -90.85210 27871 ft 498 kts 133°
2026-05-08 10:18 34.06168 -90.81732 28149 ft 501 kts 133°
2026-05-08 10:18 34.04218 -90.78238 28415 ft 504 kts 133°
2026-05-08 10:18 34.02252 -90.74719 28679 ft 506 kts 132°
2026-05-08 10:18 34.00279 -90.71189 28954 ft 509 kts 132°
2026-05-08 10:19 33.98293 -90.67638 29219 ft 512 kts 133°
2026-05-08 10:19 33.96321 -90.64117 29478 ft 514 kts 133°
2026-05-08 10:19 33.94317 -90.60542 29734 ft 516 kts 132°
2026-05-08 10:20 33.90294 -90.53370 30363 ft 517 kts 132°
2026-05-08 10:20 33.88271 -90.49773 30539 ft 520 kts 132°
2026-05-08 10:20 33.86234 -90.46157 30730 ft 523 kts 133°
2026-05-08 10:20 33.84879 -90.43752 30880 ft 524 kts 133°
2026-05-08 10:21 33.82836 -90.40126 31181 ft 523 kts 133°
2026-05-08 10:21 33.80795 -90.36505 31494 ft 522 kts 133°
2026-05-08 10:21 33.78084 -90.31705 31818 ft 523 kts 133°
2026-05-08 10:21 33.76703 -90.29264 31968 ft 524 kts 133°
2026-05-08 10:22 33.74649 -90.25636 32231 ft 524 kts 133°
2026-05-08 10:22 33.72596 -90.22013 32517 ft 524 kts 133°
2026-05-08 10:22 33.70542 -90.18390 32786 ft 524 kts 134°
2026-05-08 10:22 33.68516 -90.14821 33001 ft 524 kts 134°
2026-05-08 10:23 33.66463 -90.11208 33348 ft 521 kts 134°
2026-05-08 10:23 33.64427 -90.07622 33734 ft 518 kts 134°
2026-05-08 10:23 33.62401 -90.04060 34035 ft 517 kts 134°
2026-05-08 10:23 33.60364 -90.00487 34271 ft 517 kts 135°
2026-05-08 10:24 33.58335 -89.96934 34471 ft 517 kts 135°
2026-05-08 10:24 33.56302 -89.93378 34654 ft 517 kts 135°
2026-05-08 10:24 33.54262 -89.89813 34842 ft 518 kts 135°
2026-05-08 10:24 33.52225 -89.86257 35039 ft 518 kts 135°
2026-05-08 10:25 33.50177 -89.82685 35057 ft 521 kts 135°
2026-05-08 10:25 33.46076 -89.75535 35049 ft 519 kts 135°
2026-05-08 10:26 33.42037 -89.68494 35052 ft 515 kts 135°
2026-05-08 10:26 33.37984 -89.61451 35057 ft 512 kts 135°
2026-05-08 10:27 33.33933 -89.54432 35023 ft 511 kts 135°
2026-05-08 10:27 33.29891 -89.47446 35033 ft 511 kts 135°
2026-05-08 10:28 33.25840 -89.40457 35020 ft 512 kts 135°
2026-05-08 10:28 33.21773 -89.33451 35048 ft 514 kts 135°
2026-05-08 10:29 33.17707 -89.26459 35077 ft 516 kts 135°
2026-05-08 10:29 33.13597 -89.19401 35073 ft 517 kts 135°
2026-05-08 10:30 33.09479 -89.12342 35096 ft 519 kts 135°
2026-05-08 10:30 33.05339 -89.05261 34964 ft 520 kts 135°
2026-05-08 10:31 33.01199 -88.98192 34989 ft 521 kts 135°
2026-05-08 10:31 32.97075 -88.91164 35028 ft 521 kts 135°
2026-05-08 10:32 32.92924 -88.84101 35042 ft 520 kts 135°
2026-05-08 10:32 32.88769 -88.77046 35071 ft 519 kts 135°
2026-05-08 10:33 32.84622 -88.70018 35061 ft 517 kts 135°
2026-05-08 10:33 32.80489 -88.63030 35032 ft 516 kts 135°
2026-05-08 10:34 32.76389 -88.56110 35060 ft 515 kts 135°
2026-05-08 10:34 32.72252 -88.49142 35056 ft 515 kts 135°
2026-05-08 10:35 32.68118 -88.42191 35065 ft 515 kts 135°
2026-05-08 10:35 32.63972 -88.35232 35074 ft 515 kts 135°
2026-05-08 10:36 32.59848 -88.28324 35028 ft 516 kts 135°
2026-05-08 10:36 32.55703 -88.21390 35058 ft 516 kts 135°
2026-05-08 10:37 32.51548 -88.14455 35061 ft 516 kts 135°
2026-05-08 10:37 32.47385 -88.07518 35044 ft 517 kts 135°
2026-05-08 10:38 32.43203 -88.00563 35035 ft 517 kts 135°
2026-05-08 10:38 32.39044 -87.93660 35037 ft 518 kts 135°
2026-05-08 10:39 32.34850 -87.86708 35027 ft 519 kts 135°
2026-05-08 10:39 32.30652 -87.79764 35006 ft 518 kts 135°
2026-05-08 10:40 32.26461 -87.72843 35003 ft 518 kts 135°
2026-05-08 10:40 32.22265 -87.65926 34986 ft 517 kts 135°
2026-05-08 10:41 32.18106 -87.59084 34994 ft 516 kts 135°
2026-05-08 10:41 32.13912 -87.52197 34980 ft 515 kts 135°
2026-05-08 10:42 32.09728 -87.45340 34976 ft 514 kts 135°
2026-05-08 10:42 32.05545 -87.38496 34964 ft 514 kts 135°
2026-05-08 10:43 32.01363 -87.31665 34968 ft 513 kts 135°
2026-05-08 10:43 31.97177 -87.24842 34941 ft 513 kts 135°
2026-05-08 10:44 31.92995 -87.18036 34957 ft 513 kts 135°
2026-05-08 10:44 31.88828 -87.11267 34960 ft 513 kts 135°
2026-05-08 10:45 31.84636 -87.04470 34941 ft 514 kts 135°
2026-05-08 10:45 31.80431 -86.97663 34973 ft 514 kts 135°
2026-05-08 10:46 31.76212 -86.90845 34966 ft 515 kts 135°
2026-05-08 10:46 31.72000 -86.84049 34986 ft 514 kts 135°
2026-05-08 10:47 31.67788 -86.77266 34998 ft 514 kts 135°
2026-05-08 10:47 31.63598 -86.70532 34943 ft 514 kts 135°
2026-05-08 10:48 31.59376 -86.63757 34945 ft 514 kts 135°
2026-05-08 10:48 31.55150 -86.56988 34967 ft 514 kts 135°
2026-05-08 10:49 31.50923 -86.50230 34973 ft 513 kts 135°
2026-05-08 10:49 31.46699 -86.43487 34970 ft 513 kts 135°
2026-05-08 10:50 31.42475 -86.36754 35000 ft 512 kts 135°
2026-05-08 10:50 31.38252 -86.30037 35013 ft 511 kts 135°
2026-05-08 10:51 31.34054 -86.23371 35028 ft 511 kts 135°
2026-05-08 10:51 31.29838 -86.16688 35026 ft 511 kts 134°
2026-05-08 10:52 31.25617 -86.10008 35044 ft 510 kts 134°
2026-05-08 10:52 31.21392 -86.03335 35040 ft 511 kts 134°
2026-05-08 10:53 31.17183 -85.96698 35019 ft 511 kts 134°
2026-05-08 10:53 31.12941 -85.90019 35029 ft 511 kts 134°
2026-05-08 10:54 31.08701 -85.83354 35007 ft 511 kts 134°
2026-05-08 10:54 31.04454 -85.76690 35002 ft 512 kts 134°
2026-05-08 10:55 31.00190 -85.70012 34967 ft 513 kts 134°
2026-05-08 10:55 30.95929 -85.63348 34950 ft 513 kts 134°
2026-05-08 10:56 30.91679 -85.56714 35048 ft 513 kts 134°
2026-05-08 10:56 30.87407 -85.50055 35006 ft 513 kts 134°
2026-05-08 10:57 30.83135 -85.43405 35017 ft 512 kts 134°
2026-05-08 10:57 30.76746 -85.33485 35005 ft 510 kts 134°
2026-05-08 10:58 30.72496 -85.26900 35020 ft 508 kts 134°
2026-05-08 10:58 30.68252 -85.20335 35020 ft 507 kts 134°
2026-05-08 10:59 30.64009 -85.13784 35011 ft 506 kts 134°
2026-05-08 10:59 30.59771 -85.07251 35005 ft 506 kts 134°
2026-05-08 11:00 30.55558 -85.00767 35000 ft 505 kts 134°
2026-05-08 11:00 30.51323 -84.94260 35004 ft 505 kts 134°
2026-05-08 11:01 30.47082 -84.87754 34998 ft 506 kts 134°
2026-05-08 11:01 30.42838 -84.81254 35004 ft 506 kts 134°
2026-05-08 11:02 30.36456 -84.71500 35001 ft 507 kts 134°
2026-05-08 11:03 30.32182 -84.64981 35007 ft 508 kts 134°
2026-05-08 11:03 30.27907 -84.58469 34962 ft 508 kts 134°
2026-05-08 11:04 30.23665 -84.52017 34987 ft 507 kts 134°
2026-05-08 11:04 30.19389 -84.45526 35004 ft 507 kts 134°
2026-05-08 11:05 30.15108 -84.39039 34997 ft 507 kts 134°
2026-05-08 11:05 30.10826 -84.32559 35005 ft 507 kts 134°
2026-05-08 11:06 30.06547 -84.26094 34998 ft 507 kts 134°
2026-05-08 11:06 30.02988 -84.20724 35008 ft 506 kts 134°
2026-05-08 11:07 29.98702 -84.14268 35008 ft 506 kts 134°
2026-05-08 11:07 29.94412 -84.07816 35000 ft 505 kts 134°
2026-05-08 11:08 29.90128 -84.01382 35005 ft 505 kts 134°
2026-05-08 11:08 29.85845 -83.94958 35012 ft 505 kts 134°
2026-05-08 11:09 29.81157 -83.89135 35015 ft 490 kts 149°
2026-05-08 11:09 29.78408 -83.86883 35005 ft 479 kts 159°
2026-05-08 11:09 29.75511 -83.85022 35023 ft 477 kts 160°
2026-05-08 11:10 29.69673 -83.81357 35009 ft 478 kts 160°
2026-05-08 11:10 29.63834 -83.77658 35008 ft 479 kts 159°
2026-05-08 11:11 29.57990 -83.73914 35016 ft 481 kts 159°
2026-05-08 11:11 29.52141 -83.70154 35016 ft 482 kts 159°
2026-05-08 11:12 29.46274 -83.66386 35013 ft 484 kts 159°
2026-05-08 11:12 29.40400 -83.62620 35019 ft 484 kts 159°
2026-05-08 11:13 29.34546 -83.58873 35015 ft 483 kts 159°
2026-05-08 11:13 29.28673 -83.55120 35016 ft 483 kts 159°
2026-05-08 11:14 29.22802 -83.51372 35017 ft 482 kts 159°
2026-05-08 11:14 29.16937 -83.47634 35020 ft 481 kts 159°
2026-05-08 11:15 29.11091 -83.43913 35021 ft 480 kts 159°
2026-05-08 11:15 29.05257 -83.40205 35020 ft 479 kts 159°
2026-05-08 11:16 28.99474 -83.36533 35022 ft 478 kts 159°
2026-05-08 11:16 28.93653 -83.32843 35028 ft 478 kts 159°
2026-05-08 11:17 28.87836 -83.29161 35024 ft 477 kts 159°
2026-05-08 11:17 28.82025 -83.25486 35023 ft 477 kts 159°
2026-05-08 11:18 28.76207 -83.21812 35011 ft 477 kts 159°
2026-05-08 11:18 28.70429 -83.18167 35034 ft 478 kts 159°
2026-05-08 11:19 28.64607 -83.14500 35029 ft 478 kts 159°
2026-05-08 11:19 28.58776 -83.10832 35034 ft 479 kts 159°
2026-05-08 11:20 28.52935 -83.07162 35033 ft 479 kts 159°
2026-05-08 11:20 28.47087 -83.03492 35008 ft 480 kts 158°
2026-05-08 11:21 28.41270 -82.99845 35023 ft 480 kts 158°
2026-05-08 11:21 28.35417 -82.96181 35030 ft 480 kts 158°
2026-05-08 11:22 28.29563 -82.92522 35024 ft 480 kts 158°
2026-05-08 11:22 28.23707 -82.88865 35031 ft 480 kts 158°
2026-05-08 11:23 28.17849 -82.85212 35006 ft 480 kts 158°
2026-05-08 11:23 28.11995 -82.81566 35036 ft 480 kts 158°
2026-05-08 11:24 28.06146 -82.77927 35043 ft 479 kts 158°
2026-05-08 11:24 28.00308 -82.74299 35047 ft 479 kts 158°
2026-05-08 11:25 27.94503 -82.70696 35035 ft 479 kts 158°
2026-05-08 11:25 27.88490 -82.67717 35028 ft 463 kts 174°
2026-05-08 11:26 27.82226 -82.66238 35017 ft 459 kts 176°
2026-05-08 11:26 27.75958 -82.64808 35029 ft 460 kts 175°
2026-05-08 11:27 27.69686 -82.63322 35028 ft 461 kts 175°
2026-05-08 11:27 27.63415 -82.61814 35028 ft 461 kts 175°
2026-05-08 11:28 27.57138 -82.60304 35029 ft 462 kts 175°
2026-05-08 11:28 27.50848 -82.58795 35032 ft 462 kts 175°
2026-05-08 11:29 27.44546 -82.57274 35030 ft 464 kts 173°
2026-05-08 11:29 27.41485 -82.56130 35032 ft 474 kts 162°
2026-05-08 11:29 27.38534 -82.54415 35038 ft 480 kts 154°
2026-05-08 11:30 27.33275 -82.49856 34606 ft 472 kts 146°
2026-05-08 11:30 27.30755 -82.47504 34264 ft 468 kts 146°
2026-05-08 11:30 27.28259 -82.45176 33871 ft 464 kts 146°
2026-05-08 11:30 27.25773 -82.42879 33431 ft 461 kts 146°
2026-05-08 11:31 27.23293 -82.40609 33037 ft 457 kts 146°
2026-05-08 11:31 27.20826 -82.38367 32649 ft 454 kts 146°
2026-05-08 11:31 27.18370 -82.36147 32266 ft 451 kts 146°
2026-05-08 11:31 27.15962 -82.33974 31895 ft 448 kts 146°
2026-05-08 11:32 27.13537 -82.31789 31522 ft 445 kts 146°
2026-05-08 11:32 27.11127 -82.29618 31185 ft 441 kts 146°
2026-05-08 11:32 27.08749 -82.27477 30953 ft 435 kts 146°
2026-05-08 11:32 27.06399 -82.25360 30637 ft 432 kts 146°
2026-05-08 11:33 27.04068 -82.23263 30293 ft 429 kts 146°
2026-05-08 11:33 27.01745 -82.21174 29913 ft 427 kts 146°
2026-05-08 11:33 26.99433 -82.19097 29512 ft 424 kts 146°
2026-05-08 11:33 26.97135 -82.17033 29117 ft 421 kts 146°
2026-05-08 11:34 26.94858 -82.14988 28720 ft 418 kts 146°
2026-05-08 11:34 26.92596 -82.12957 28350 ft 415 kts 146°
2026-05-08 11:34 26.90351 -82.10943 27981 ft 412 kts 146°
2026-05-08 11:34 26.88121 -82.08944 27616 ft 409 kts 146°
2026-05-08 11:35 26.85906 -82.06959 27251 ft 407 kts 146°
2026-05-08 11:35 26.83729 -82.05010 26889 ft 404 kts 146°
2026-05-08 11:35 26.81536 -82.03046 26527 ft 402 kts 146°
2026-05-08 11:35 26.79344 -82.01085 26163 ft 400 kts 146°
2026-05-08 11:36 26.77173 -81.99144 25808 ft 398 kts 146°
2026-05-08 11:36 26.75014 -81.97214 25436 ft 397 kts 146°
2026-05-08 11:36 26.72859 -81.95289 25059 ft 396 kts 146°
2026-05-08 11:36 26.70709 -81.93370 24690 ft 395 kts 146°
2026-05-08 11:37 26.68593 -81.91480 24336 ft 394 kts 146°
2026-05-08 11:37 26.66451 -81.89570 23967 ft 393 kts 146°
2026-05-08 11:37 26.64315 -81.87665 23598 ft 392 kts 145°
2026-05-08 11:37 26.62178 -81.85760 23168 ft 391 kts 145°
2026-05-08 11:38 26.60059 -81.83870 22798 ft 388 kts 145°
2026-05-08 11:38 26.57951 -81.81993 22432 ft 386 kts 145°
2026-05-08 11:38 26.55859 -81.80131 22083 ft 383 kts 145°
2026-05-08 11:38 26.53827 -81.78208 21719 ft 384 kts 138°
2026-05-08 11:39 26.52098 -81.75944 21352 ft 384 kts 126°
2026-05-08 11:39 26.50700 -81.73400 21012 ft 383 kts 122°
2026-05-08 11:39 26.49379 -81.70819 20645 ft 382 kts 121°
2026-05-08 11:39 26.48077 -81.68243 20300 ft 380 kts 121°
2026-05-08 11:40 26.46774 -81.65679 19951 ft 379 kts 121°
2026-05-08 11:40 26.45485 -81.63163 19585 ft 378 kts 121°
2026-05-08 11:40 26.44173 -81.60620 19239 ft 376 kts 122°
2026-05-08 11:40 26.42861 -81.58091 18874 ft 376 kts 122°
2026-05-08 11:41 26.41551 -81.55571 18501 ft 375 kts 122°
2026-05-08 11:41 26.40242 -81.53058 18124 ft 374 kts 122°
2026-05-08 11:41 26.38939 -81.50559 17759 ft 372 kts 122°
2026-05-08 11:41 26.37643 -81.48074 17402 ft 369 kts 122°
2026-05-08 11:42 26.36356 -81.45608 17055 ft 367 kts 122°
2026-05-08 11:42 26.35077 -81.43156 16709 ft 364 kts 122°
2026-05-08 11:42 26.33805 -81.40720 16366 ft 362 kts 122°
2026-05-08 11:42 26.32543 -81.38305 16017 ft 360 kts 122°
2026-05-08 11:43 26.31298 -81.35926 15667 ft 358 kts 122°
2026-05-08 11:43 26.30046 -81.33533 15321 ft 356 kts 122°
2026-05-08 11:43 26.28801 -81.31157 14987 ft 354 kts 122°
2026-05-08 11:43 26.27563 -81.28796 14652 ft 352 kts 122°
2026-05-08 11:44 26.26331 -81.26445 14306 ft 350 kts 122°
2026-05-08 11:44 26.25103 -81.24105 13968 ft 348 kts 122°
2026-05-08 11:44 26.23884 -81.21782 13608 ft 346 kts 122°
2026-05-08 11:44 26.22672 -81.19474 13252 ft 344 kts 122°
2026-05-08 11:45 26.21465 -81.17175 12904 ft 341 kts 121°
2026-05-08 11:45 26.20273 -81.14905 12566 ft 338 kts 121°
2026-05-08 11:45 26.19090 -81.12654 12232 ft 335 kts 121°
2026-05-08 11:45 26.17931 -81.10451 11908 ft 333 kts 121°
2026-05-08 11:46 26.16765 -81.08236 11575 ft 330 kts 121°
2026-05-08 11:46 26.15646 -81.06013 11253 ft 328 kts 114°
2026-05-08 11:46 26.15103 -81.03576 10977 ft 324 kts 95°
2026-05-08 11:46 26.14926 -81.01085 10680 ft 321 kts 95°
2026-05-08 11:47 26.14743 -80.98641 10540 ft 312 kts 95°
2026-05-08 11:47 26.14520 -80.96264 10397 ft 304 kts 98°
2026-05-08 11:47 26.14193 -80.93972 10264 ft 296 kts 99°
2026-05-08 11:47 26.13849 -80.91768 10143 ft 289 kts 100°
2026-05-08 11:48 26.13508 -80.89595 10018 ft 281 kts 99°
2026-05-08 11:48 26.13179 -80.87483 9961 ft 271 kts 99°
2026-05-08 11:48 26.12862 -80.85423 9543 ft 275 kts 99°
2026-05-08 11:48 26.12545 -80.83338 9226 ft 271 kts 99°
2026-05-08 11:49 26.12236 -80.81290 8923 ft 265 kts 99°
2026-05-08 11:49 26.11935 -80.79298 8649 ft 258 kts 99°
2026-05-08 11:49 26.11642 -80.77351 8382 ft 252 kts 99°
2026-05-08 11:49 26.11356 -80.75444 8128 ft 250 kts 99°
2026-05-08 11:50 26.11069 -80.73533 7889 ft 251 kts 99°
2026-05-08 11:50 26.10780 -80.71609 7640 ft 254 kts 99°
2026-05-08 11:50 26.10489 -80.69672 7371 ft 251 kts 99°
2026-05-08 11:50 26.10202 -80.67769 7118 ft 250 kts 99°
2026-05-08 11:51 26.09913 -80.65848 6864 ft 253 kts 99°
2026-05-08 11:51 26.09622 -80.63916 6598 ft 254 kts 99°
2026-05-08 11:51 26.09331 -80.61981 6340 ft 253 kts 99°
2026-05-08 11:51 26.09041 -80.60056 6082 ft 249 kts 99°
2026-05-08 11:52 26.08764 -80.58218 5815 ft 239 kts 100°
2026-05-08 11:52 26.08581 -80.57009 5641 ft 231 kts 100°
2026-05-08 11:52 26.08239 -80.54750 5322 ft 216 kts 100°
2026-05-08 11:52 26.07996 -80.53142 5118 ft 205 kts 100°
2026-05-08 11:53 26.07814 -80.51610 4947 ft 196 kts 93°
2026-05-08 11:53 26.07801 -80.50611 4878 ft 194 kts 90°
2026-05-08 11:53 26.07814 -80.49105 4789 ft 196 kts 90°
2026-05-08 11:53 26.07863 -80.47567 4661 ft 199 kts 89°
2026-05-08 11:54 26.07873 -80.46019 4534 ft 201 kts 91°
2026-05-08 11:54 26.07862 -80.44457 4396 ft 201 kts 91°
2026-05-08 11:54 26.07850 -80.42929 4269 ft 192 kts 91°
2026-05-08 11:54 26.07840 -80.41474 4134 ft 186 kts 91°
2026-05-08 11:55 26.07831 -80.40052 4029 ft 184 kts 91°
2026-05-08 11:55 26.07822 -80.38625 3875 ft 184 kts 90°
2026-05-08 11:55 26.07813 -80.37199 3683 ft 183 kts 90°
2026-05-08 11:55 26.07804 -80.35777 3414 ft 184 kts 90°
2026-05-08 11:56 26.07795 -80.34364 3179 ft 180 kts 90°
2026-05-08 11:56 26.07787 -80.33022 2927 ft 169 kts 89°
2026-05-08 11:56 26.07780 -80.31755 2711 ft 162 kts 89°
2026-05-08 11:56 26.07772 -80.30509 2506 ft 161 kts 88°
2026-05-08 11:57 26.07765 -80.29267 2296 ft 162 kts 88°
2026-05-08 11:57 26.07758 -80.28015 2074 ft 160 kts 88°
2026-05-08 11:57 26.07752 -80.26787 1870 ft 158 kts 86°
2026-05-08 11:57 26.07745 -80.25573 1658 ft 156 kts 87°
2026-05-08 11:58 26.07739 -80.24359 1445 ft 157 kts 87°
2026-05-08 11:58 26.07723 -80.23126 1201 ft 160 kts 88°
2026-05-08 11:58 26.07719 -80.21887 947 ft 160 kts 86°
2026-05-08 11:59 26.07718 -80.19441 479 ft 155 kts 89°
2026-05-08 11:59 26.07707 -80.18259 315 ft 153 kts 90°
2026-05-08 11:59 26.07700 -80.17069 124 ft 155 kts 89°
2026-05-08 11:59 26.07689 -80.15894 24 ft 140 kts 89°
2026-05-08 12:00 26.07687 -80.15043 17 ft 80 kts 90°
2026-05-08 12:00 26.07649 -80.14656 25 ft 30 kts 107°
2026-05-08 12:00 26.07612 -80.14561 25 ft 0 kts 119°
2026-05-08 12:02 26.07580 -80.14525 27 ft 13 kts 148°
2026-05-08 12:02 26.07496 -80.14490 24 ft 13 kts 126°
2026-05-08 12:02 26.07478 -80.14425 23 ft 6 kts 120°
2026-05-08 12:02 26.07441 -80.14395 22 ft 7 kts 170°
2026-05-08 12:03 26.07406 -80.14394 22 ft 2 kts 180°
2026-05-08 12:03 26.07394 -80.14394 23 ft 0 kts 179°
2026-05-08 12:03 26.07391 -80.14394 22 ft 0 kts 180°